Regional Weather Roundup
Issued by NWS

Home | Current Version | Previous Version | Text Only | Print | Product List | Glossary On
Versions: 1 2 3 4 5 6 7 8 9 10 11 12 13 14 15 16 17 18 19 20 21 22 23 24 25 26 27 28 29 30 31 32 33 34 35 36 37 38 39 40 41 42 43 44 45 46 47 48 49 50
000
ASUS43 KTOP 252159
RWRKS

WEATHER ROUNDUP FOR KANSAS
NATIONAL WEATHER SERVICE GOODLAND KS
500 PM CDT SAT MAR 25 2017

NOTE:  "FAIR" INDICATES FEW OR NO CLOUDS BELOW 12,000 FEET WITH NO
SIGNIFICANT WEATHER AND/OR OBSTRUCTIONS TO VISIBILITY.

KSZ001>006-013>018-027>032-041>047-252300-
NORTHWEST KANSAS

CITY           SKY/WX    TMP DP  RH WIND       PRES   REMARKS
GOODLAND       CLOUDY    59  29  31 VRB3      29.90F
HAYS             N/A     50  39  66 N6        29.92F
HILL CITY      SUNNY     56  43  61 NE8       29.91F
RUSSELL        CLOUDY    50  39  66 N12       29.91F
$$

KSZ061>065-074>080-084>089-252300-
SOUTHWEST KANSAS

CITY           SKY/WX    TMP DP  RH WIND       PRES   REMARKS
DODGE CITY     SUNNY     63  39  41 NE12      29.89F
ELKHART          N/A     64  27  24 S6          N/A
GARDEN CITY    SUNNY     65  31  28 NW9       29.89F
GREAT BEND     PTSUNNY   51  41  68 N12G18    29.91F
LIBERAL        SUNNY     64  25  22 N3        29.92F
$$

KSZ066>073-081>083-090>101-252300-
SOUTHEAST KANSAS

CITY           SKY/WX    TMP DP  RH WIND       PRES   REMARKS
CHANUTE        CLOUDY    48  45  89 W13       29.88R
COFFEYVILLE    CLOUDY    49  42  77 NW13      29.91R
HUTCHINSON     CLOUDY    46  40  79 N12       29.92S
MEDICINE LODGE   N/A     56  41  57 N13       29.90F
NEWTON         CLOUDY    43  41  93 N17       29.91F
PARSONS        CLOUDY    49  43  80 W13       29.90S
WICHITA INTL   CLOUDY    46  41  82 N13       29.91F
WICHITA JABRA  CLOUDY    46  40  79 NW14      29.91S
WINFIELD       CLOUDY    47  41  80 NW14      29.93S
$$

KSZ007>012-019>026-033>040-048>060-102>105-252300-
NORTHEAST KANSAS

CITY           SKY/WX    TMP DP  RH WIND       PRES   REMARKS
CONCORDIA      CLOUDY    41  40  96 N12       29.93F
EMPORIA        CLOUDY    45  45 100 NW14      29.87S FOG
LAWRENCE       CLOUDY    49  47  93 NW14      29.86R
MANHATTAN      CLOUDY    46  42  86 N8        29.91S
OLATHE IND     CLOUDY    52  49  89 NW15      29.83R
OLATHE EXE     CLOUDY    54  50  86 N10       29.82R
SALINA         CLOUDY    45  40  82 N15       29.93F
TOPEKA BILLARD CLOUDY    48  46  93 N10       29.88R
TOPEKA FORBES  CLOUDY    48  45  89 N12       29.87R FOG
$$




USA.gov is the U.S. government's official web portal to all federal, state and local government web resources and services.